Location: Bottens
(46.6171°N, 6.6605°E)
Time: 20:09:05
(UTC+00:00)

USA 305 - Pass Details

Date: 20 June 2021
Orbit: 558 x 580 km, 54.0° (Epoch: 13 July)

Event Time Altitude Azimuth Distance (km) Brightness Sun altitude
Exits shadow 02:46:14 - 261° (W) 2,332 5.5 -7.7°
Reaches altitude 10° 02:47:31 10° 265° (W) 1,845 5.1 -7.6°
Maximum altitude 02:51:32 45° 339° (NNW) 774 3.8 -7.1°
Drops below altitude 10° 02:55:36 10° 53° (NE) 1,858 7.3 -6.6°
Sets 02:57:56 0° 60° (ENE) 2,759 8.3 -6.3°
